User: anonymous   Login
Location: Langangen
(59.1000°N, 9.8000°E)
Time: 16:07:53
(UTC+02:00)
Language:

Iridium 60 - Orbit

View from above orbital plane
View from above orbital plane
View from above satellite
View from above satellite

Ground track
Ground track

The orbit data is extracted from the following two-line orbital elements,

1 25276U 98019E   15243.42820685  .00000159  00000-0  49819-4 0  9999
2 25276 086.3987 201.0989 0002285 083.7428 276.4028 14.34220098912074
Epoch (UTC): 31 August 2015 10:16:37
Eccentricity: 0.0002285
inclination: 86.3987°
perigee height: 776 km
apogee height: 779 km
right ascension of ascending node: 201.0989°
argument of perigee: 83.7428°
revolutions per day: 14.34220098
mean anomaly at epoch: 276.4028°
orbit number at epoch: 91207

The dashed part of the orbit path shows where the satellite is in the earth's shadow,  

DLR